Ambler, AK

1:17 AM AKDT on June 24, 2017 (GMT -0800)
Ambler

Weather History for PAFM - December, 2012

Change the Weather History Date:

Sunday, December 16, 2012

  Actual Average Record
Temperature  
Mean Temperature -24 °F -  
Max Temperature -20 °F 0 °F 31 °F (1988)
Min Temperature -27 °F -5 °F -41 °F (1998)
Degree Days  
Heating Degree Days 88    
Moisture  
Dew Point -29 °F    
Average Humidity 66    
Maximum Humidity 76    
Minimum Humidity 63    
Precipitation  
Precipitation 0.00 in - - ()
Sea Level Pressure  
Sea Level Pressure 29.77 in    
Wind  
Wind Speed 1 mph (NNE)    
Max Wind Speed 6 mph    
Max Gust Speed -    
Visibility 9 miles    
Events      
Averages and records for this station are not official NWS values.
T = Trace of Precipitation, MM = Missing Value Source: NWS Daily Summary

Daily Weather History Graph

Daily Weather History Graph

Search for Another Location

Airport or City:

Trip Planner

Search our weather history database for the weather conditions in past years. The results will help you decide how hot, cold, wet, or windy it might be!

Date:

Astronomy

Dec. 16, 2012 Rise Set
Actual Time 12:43 PM AKST 2:10 PM AKST
Civil Twilight 10:34 AM AKST 4:19 PM AKST
Nautical Twilight 9:11 AM AKST 5:42 PM AKST
Astronomical Twilight 8:03 AM AKST 6:51 PM AKST
Moon 12:48 PM AKST (12/16) 9:24 PM AKST (12/16)
Length of Visible Light 5h 45m
Length of Day
1h 27m
Waxing Crescent, 17% of the Moon is Illuminated
Dec 16
Waxing Crescent
Dec 19
First Quarter
Dec 28
Full
Jan 4
Last Quarter
Jan 11
New

Hourly Weather History & Observations

Time (AKST) Temp. Windchill Dew Point Humidity Pressure Visibility Wind Dir Wind Speed Gust Speed Precip Events Conditions
12:16 AM -23.8 °F -39.8 °F - N/A% 29.67 in 10.0 mi NE 5.8 mph - N/A   Overcast
12:36 AM -22.0 °F - - N/A% 29.67 in 10.0 mi Calm Calm - N/A   Overcast
12:56 AM -22.0 °F - - N/A% 29.68 in 10.0 mi Calm Calm - N/A   Overcast
1:16 AM -20.2 °F - -27.4 °F 69% 29.68 in 10.0 mi Calm Calm - N/A   Overcast
1:36 AM -20.2 °F - - N/A% 29.68 in 10.0 mi Calm Calm - N/A   Overcast
1:56 AM -22.0 °F - - N/A% 29.69 in 10.0 mi Calm Calm - N/A   Overcast
2:36 AM -23.8 °F - - N/A% 29.68 in 10.0 mi Calm Calm - N/A   Partly Cloudy
2:56 AM -23.8 °F - - N/A% 29.68 in 10.0 mi Calm Calm - N/A   Clear
3:16 AM -25.6 °F - - N/A% 29.68 in 10.0 mi Calm Calm - N/A   Clear
3:36 AM -23.8 °F - - N/A% 29.68 in 10.0 mi Calm Calm - N/A   Clear
3:56 AM -23.8 °F - - N/A% 29.68 in 10.0 mi Calm Calm - N/A   Clear
4:16 AM -23.8 °F - - N/A% 29.68 in 10.0 mi Calm Calm - N/A   Clear
4:36 AM -23.8 °F - - N/A% 29.68 in 10.0 mi Calm Calm - N/A   Clear
4:56 AM -20.2 °F - -29.2 °F 63% 29.69 in 10.0 mi Calm Calm - N/A   Scattered Clouds
5:16 AM -20.2 °F - -25.6 °F 76% 29.69 in 10.0 mi Calm Calm - N/A   Scattered Clouds
5:36 AM -23.8 °F - - N/A% 29.69 in 10.0 mi Calm Calm - N/A   Mostly Cloudy
5:56 AM -23.8 °F - - N/A% 29.70 in 10.0 mi Calm Calm - N/A   Mostly Cloudy
6:16 AM -22.0 °F - - N/A% 29.71 in 10.0 mi Calm Calm - N/A   Overcast
6:36 AM -22.0 °F - -29.2 °F 69% 29.70 in 10.0 mi Calm Calm - N/A   Overcast
6:56 AM -22.0 °F - - N/A% 29.70 in 10.0 mi Calm Calm - N/A   Mostly Cloudy
7:16 AM -23.8 °F - - N/A% 29.71 in 10.0 mi Calm Calm - N/A   Mostly Cloudy
7:36 AM -23.8 °F - - N/A% 29.71 in 10.0 mi Calm Calm - N/A   Mostly Cloudy
7:56 AM -22.0 °F - - N/A% 29.71 in 10.0 mi Calm Calm - N/A   Overcast
8:16 AM -23.8 °F - - N/A% 29.72 in 10.0 mi Calm Calm - N/A   Overcast
8:36 AM -22.0 °F - - N/A% 29.73 in 5.0 mi Calm Calm - N/A   Overcast
8:56 AM -20.2 °F - -29.2 °F 63% 29.73 in 6.0 mi Calm Calm - N/A   Overcast
9:16 AM -20.2 °F - -29.2 °F 63% 29.73 in 5.0 mi Calm Calm - N/A   Overcast
9:36 AM -20.2 °F - -29.2 °F 63% 29.74 in 4.0 mi Calm Calm - N/A   Mostly Cloudy
9:56 AM -20.2 °F - -29.2 °F 63% 29.74 in 3.0 mi Calm Calm - N/A   Overcast
10:16 AM -20.2 °F - - N/A% 29.75 in 7.0 mi Calm Calm - N/A   Overcast
10:36 AM -20.2 °F - - N/A% 29.75 in 4.0 mi Calm Calm - N/A   Mostly Cloudy
10:56 AM -20.2 °F - - N/A% 29.75 in 10.0 mi Calm Calm - N/A   Mostly Cloudy
11:16 AM -20.2 °F - - N/A% 29.76 in 10.0 mi Calm Calm - N/A   Overcast
11:36 AM -20.2 °F - - N/A% 29.77 in 10.0 mi Calm Calm - N/A   Overcast
11:56 AM -22.0 °F - - N/A% 29.77 in 10.0 mi Calm Calm - N/A   Overcast
12:16 PM -22.0 °F - - N/A% 29.77 in 7.0 mi Calm Calm - N/A   Overcast
12:36 PM -22.0 °F - - N/A% 29.78 in 9.0 mi Calm Calm - N/A   Overcast
12:56 PM -22.0 °F - - N/A% 29.78 in 4.0 mi Calm Calm - N/A   Overcast
1:16 PM -22.0 °F - - N/A% 29.78 in 7.0 mi Calm Calm - N/A   Mostly Cloudy
1:36 PM -23.8 °F - - N/A% 29.79 in 10.0 mi Calm Calm - N/A   Scattered Clouds
1:56 PM -23.8 °F - - N/A% 29.80 in 10.0 mi Calm Calm - N/A   Mostly Cloudy
2:16 PM -23.8 °F - - N/A% 29.80 in 7.0 mi Calm Calm - N/A   Overcast
2:36 PM -22.0 °F - - N/A% 29.80 in 9.0 mi Calm Calm - N/A   Mostly Cloudy
2:56 PM -23.8 °F - - N/A% 29.81 in 10.0 mi Calm Calm - N/A   Partly Cloudy
3:16 PM -23.8 °F - - N/A% 29.81 in 10.0 mi Calm Calm - N/A   Partly Cloudy
3:36 PM -25.6 °F - - N/A% 29.81 in 10.0 mi Calm Calm - N/A   Clear
3:56 PM -25.6 °F - - N/A% 29.82 in 10.0 mi Calm Calm - N/A   Clear
4:16 PM -25.6 °F - - N/A% 29.82 in 10.0 mi Calm Calm - N/A   Clear
4:36 PM -25.6 °F - - N/A% 29.82 in 8.0 mi Calm Calm - N/A   Mostly Cloudy
4:56 PM -25.6 °F - - N/A% 29.82 in 10.0 mi Calm Calm - N/A   Partly Cloudy
5:16 PM -27.4 °F - - N/A% 29.83 in 10.0 mi Calm Calm - N/A   Clear
5:36 PM -25.6 °F - - N/A% 29.82 in 10.0 mi Calm Calm - N/A   Mostly Cloudy
5:56 PM -25.6 °F - - N/A% 29.83 in 10.0 mi Calm Calm - N/A   Mostly Cloudy
6:16 PM -25.6 °F - - N/A% 29.84 in 10.0 mi Calm Calm - N/A   Overcast
6:36 PM -25.6 °F - - N/A% 29.85 in 10.0 mi Calm Calm - N/A   Scattered Clouds
6:56 PM -25.6 °F - - N/A% 29.84 in 10.0 mi Calm Calm - N/A   Mostly Cloudy
7:16 PM -25.6 °F - - N/A% 29.84 in 10.0 mi Calm Calm - N/A   Scattered Clouds
7:36 PM -25.6 °F - - N/A% 29.85 in 10.0 mi Calm Calm - N/A   Clear
7:56 PM -25.6 °F - - N/A% 29.85 in 10.0 mi Calm Calm - N/A   Partly Cloudy
8:16 PM -25.6 °F - - N/A% 29.84 in 10.0 mi Calm Calm - N/A   Partly Cloudy
8:36 PM -27.4 °F - - N/A% 29.85 in 10.0 mi Calm Calm - N/A   Clear
9:16 PM -27.4 °F - - N/A% 29.85 in 10.0 mi Calm Calm - N/A   Clear
9:36 PM -25.6 °F - - N/A% 29.85 in 10.0 mi Calm Calm - N/A   Clear
9:56 PM -25.6 °F - - N/A% 29.85 in 10.0 mi Calm Calm - N/A   Clear
10:16 PM -23.8 °F - - N/A% 29.84 in 10.0 mi Calm Calm - N/A   Clear
10:36 PM -25.6 °F - - N/A% 29.85 in 10.0 mi Calm Calm - N/A   Clear
10:56 PM -27.4 °F -39.2 °F - N/A% 29.85 in 10.0 mi North 3.5 mph - N/A   Clear
11:16 PM -25.6 °F - - N/A% 29.85 in 10.0 mi Calm Calm - N/A   Clear
11:36 PM -27.4 °F - - N/A% 29.85 in 10.0 mi Calm Calm - N/A   Clear
11:56 PM -27.4 °F - - N/A% 29.85 in 10.0 mi Calm Calm - N/A   Clear